Time,TemperatureF,DewpointF,PressureIn,WindDirection,WindDirectionDegrees,WindSpeedMPH,WindSpeedGustMPH,Humidity,HourlyPrecipIn,Conditions,Clouds,dailyrainin,SoftwareType,DateUTC
2013-01-09 00:00:00,24.6,23.0,30.38,SSE,159,0.0,0.0,93,0.00,,,0.00,weatherlink.com 1.10,2013-01-09 05:00:00,
2013-01-09 00:15:00,24.4,23.0,30.38,SSE,159,0.0,0.0,93,0.00,,,0.00,weatherlink.com 1.10,2013-01-09 05:15:00,
2013-01-09 00:30:00,23.9,22.0,30.38,SSE,159,0.0,0.0,93,0.00,,,0.00,weatherlink.com 1.10,2013-01-09 05:30:00,
2013-01-09 00:45:00,23.9,23.0,30.38,SSE,160,0.0,0.0,94,0.00,,,0.00,weatherlink.com 1.10,2013-01-09 05:45:00,
2013-01-09 01:00:00,23.9,23.0,30.38,SSE,160,0.0,0.0,94,0.00,,,0.00,weatherlink.com 1.10,2013-01-09 06:00:00,
2013-01-09 01:15:00,23.7,22.0,30.37,SSE,159,0.0,0.0,93,0.00,,,0.00,weatherlink.com 1.10,2013-01-09 06:15:00,
2013-01-09 01:30:00,23.1,21.0,30.37,SSE,160,0.0,0.0,93,0.00,,,0.00,weatherlink.com 1.10,2013-01-09 06:30:00,
2013-01-09 01:45:00,22.4,21.0,30.37,SSE,159,0.0,0.0,93,0.00,,,0.00,weatherlink.com 1.10,2013-01-09 06:45:00,
2013-01-09 02:00:00,21.9,21.0,30.37,SSE,159,0.0,0.0,94,0.00,,,0.00,weatherlink.com 1.10,2013-01-09 07:00:00,
2013-01-09 02:15:00,21.8,20.0,30.37,SSE,160,0.0,0.0,94,0.00,,,0.00,weatherlink.com 1.10,2013-01-09 07:15:00,
2013-01-09 02:30:00,21.2,20.0,30.38,SSE,159,0.0,0.0,94,0.00,,,0.00,weatherlink.com 1.10,2013-01-09 07:30:00,
2013-01-09 02:45:00,20.8,19.0,30.38,SSE,159,0.0,0.0,94,0.00,,,0.00,weatherlink.com 1.10,2013-01-09 07:45:00,
2013-01-09 03:00:00,20.4,19.0,30.38,SSE,160,0.0,0.0,94,0.00,,,0.00,weatherlink.com 1.10,2013-01-09 08:00:00,
2013-01-09 03:15:00,20.1,19.0,30.38,SSE,159,0.0,0.0,94,0.00,,,0.00,weatherlink.com 1.10,2013-01-09 08:15:00,
2013-01-09 03:30:00,19.8,18.0,30.37,SSE,160,0.0,0.0,94,0.00,,,0.00,weatherlink.com 1.10,2013-01-09 08:30:00,
2013-01-09 03:46:00,19.6,18.0,30.38,SSE,159,0.0,0.0,94,0.00,,,0.00,weatherlink.com 1.10,2013-01-09 08:46:00,
2013-01-09 04:01:00,19.3,18.0,30.37,SSE,160,0.0,0.0,94,0.00,,,0.00,weatherlink.com 1.10,2013-01-09 09:01:00,
2013-01-09 04:16:00,19.0,18.0,30.37,SSE,159,0.0,0.0,94,0.00,,,0.00,weatherlink.com 1.10,2013-01-09 09:16:00,
2013-01-09 04:31:00,18.6,17.0,30.37,SSE,159,0.0,0.0,94,0.00,,,0.00,weatherlink.com 1.10,2013-01-09 09:31:00,
2013-01-09 04:46:00,18.6,17.0,30.36,SSE,159,0.0,0.0,94,0.00,,,0.00,weatherlink.com 1.10,2013-01-09 09:46:00,
2013-01-09 05:01:00,18.7,17.0,30.36,SSE,160,0.0,0.0,94,0.00,,,0.00,weatherlink.com 1.10,2013-01-09 10:01:00,
2013-01-09 05:16:00,18.6,17.0,30.36,SSE,160,0.0,0.0,94,0.00,,,0.00,weatherlink.com 1.10,2013-01-09 10:16:00,
2013-01-09 05:31:00,18.5,17.0,30.36,SSE,160,0.0,0.0,94,0.00,,,0.00,weatherlink.com 1.10,2013-01-09 10:31:00,
2013-01-09 05:46:00,18.3,17.0,30.36,SSE,160,0.0,0.0,94,0.00,,,0.00,weatherlink.com 1.10,2013-01-09 10:46:00,
2013-01-09 06:01:00,18.2,17.0,30.36,SSE,159,0.0,0.0,94,0.00,,,0.00,weatherlink.com 1.10,2013-01-09 11:01:00,
2013-01-09 06:17:00,18.2,17.0,30.37,SSE,160,0.0,0.0,94,0.00,,,0.00,weatherlink.com 1.10,2013-01-09 11:17:00,
2013-01-09 06:31:00,18.1,17.0,30.37,SSE,159,0.0,0.0,94,0.00,,,0.00,weatherlink.com 1.10,2013-01-09 11:31:00,
2013-01-09 06:46:00,18.2,17.0,30.36,SSE,160,0.0,0.0,94,0.00,,,0.00,weatherlink.com 1.10,2013-01-09 11:46:00,
2013-01-09 07:01:00,18.6,17.0,30.37,SSE,160,0.0,0.0,94,0.00,,,0.00,weatherlink.com 1.10,2013-01-09 12:01:00,
2013-01-09 07:16:00,18.8,17.0,30.37,SSE,159,0.0,0.0,94,0.00,,,0.00,weatherlink.com 1.10,2013-01-09 12:16:00,
2013-01-09 07:31:00,19.2,18.0,30.37,SSE,159,0.0,0.0,94,0.00,,,0.00,weatherlink.com 1.10,2013-01-09 12:31:00,
2013-01-09 07:46:00,19.5,18.0,30.37,SSE,159,0.0,0.0,94,0.00,,,0.00,weatherlink.com 1.10,2013-01-09 12:46:00,
2013-01-09 08:01:00,20.4,19.0,30.36,SSE,159,0.0,0.0,95,0.00,,,0.00,weatherlink.com 1.10,2013-01-09 13:01:00,
2013-01-09 08:16:00,21.2,20.0,30.37,SSE,159,0.0,0.0,95,0.00,,,0.00,weatherlink.com 1.10,2013-01-09 13:16:00,
2013-01-09 08:31:00,22.5,21.0,30.36,SSE,159,0.0,0.0,95,0.00,,,0.00,weatherlink.com 1.10,2013-01-09 13:31:00,
2013-01-09 08:46:00,23.6,22.0,30.37,SSE,159,0.0,0.0,95,0.00,,,0.00,weatherlink.com 1.10,2013-01-09 13:46:00,
2013-01-09 09:01:00,25.0,24.0,30.37,SSE,160,0.0,0.0,95,0.00,,,0.00,weatherlink.com 1.10,2013-01-09 14:01:00,
2013-01-09 09:16:00,26.2,25.0,30.37,SSE,159,0.0,1.0,95,0.00,,,0.00,weatherlink.com 1.10,2013-01-09 14:16:00,
2013-01-09 09:31:00,27.4,26.0,30.36,SSE,160,0.0,1.0,94,0.00,,,0.00,weatherlink.com 1.10,2013-01-09 14:31:00,
2013-01-09 09:46:00,28.7,27.0,30.34,South,174,0.0,0.0,93,0.00,,,0.00,weatherlink.com 1.10,2013-01-09 14:46:00,
2013-01-09 10:01:00,29.8,27.0,30.33,West,277,0.0,1.0,88,0.00,,,0.00,weatherlink.com 1.10,2013-01-09 15:01:00,
2013-01-09 10:16:00,30.9,27.0,30.33,West,281,0.0,1.0,85,0.00,,,0.00,weatherlink.com 1.10,2013-01-09 15:16:00,
2013-01-09 10:31:00,32.0,28.0,30.32,WSW,243,0.0,2.0,84,0.00,,,0.00,weatherlink.com 1.10,2013-01-09 15:31:00,
2013-01-09 10:46:00,33.1,28.0,30.29,SSE,155,0.0,0.0,82,0.00,,,0.00,weatherlink.com 1.10,2013-01-09 15:46:00,
2013-01-09 11:01:00,33.6,28.0,30.25,SE,131,0.0,1.0,81,0.00,,,0.00,weatherlink.com 1.10,2013-01-09 16:01:00,
2013-01-09 11:16:00,34.1,29.0,30.27,WSW,240,0.0,1.0,80,0.00,,,0.00,weatherlink.com 1.10,2013-01-09 16:16:00,
2013-01-09 11:31:00,34.7,29.0,30.26,SSE,160,0.0,1.0,78,0.00,,,0.00,weatherlink.com 1.10,2013-01-09 16:31:00,
2013-01-09 11:47:00,35.4,29.0,30.24,SSW,204,0.0,3.0,76,0.00,,,0.00,weatherlink.com 1.10,2013-01-09 16:47:00,
2013-01-09 12:02:00,36.4,29.0,30.23,East,94,0.0,1.0,74,0.00,,,0.00,weatherlink.com 1.10,2013-01-09 17:02:00,
2013-01-09 12:17:00,36.9,29.0,30.24,SSW,210,1.0,4.0,72,0.00,,,0.00,weatherlink.com 1.10,2013-01-09 17:17:00,
2013-01-09 12:32:00,37.8,29.0,30.23,West,266,0.0,4.0,71,0.00,,,0.00,weatherlink.com 1.10,2013-01-09 17:32:00,
2013-01-09 12:47:00,38.5,29.0,30.23,ESE,115,0.0,1.0,70,0.00,,,0.00,weatherlink.com 1.10,2013-01-09 17:47:00,
2013-01-09 13:02:00,38.8,30.0,30.22,SW,226,1.0,1.0,70,0.00,,,0.00,weatherlink.com 1.10,2013-01-09 18:02:00,
2013-01-09 13:17:00,39.0,30.0,30.19,SSW,205,0.0,3.0,69,0.00,,,0.00,weatherlink.com 1.10,2013-01-09 18:17:00,
2013-01-09 13:32:00,39.2,30.0,30.17,SSW,210,0.0,2.0,69,0.00,,,0.00,weatherlink.com 1.10,2013-01-09 18:32:00,
2013-01-09 13:47:00,39.3,30.0,30.15,WSW,246,0.0,5.0,70,0.00,,,0.00,weatherlink.com 1.10,2013-01-09 18:47:00,
2013-01-09 14:02:00,39.6,31.0,30.14,SW,217,0.0,3.0,71,0.00,,,0.00,weatherlink.com 1.10,2013-01-09 19:02:00,
2013-01-09 14:17:00,39.9,31.0,30.14,WSW,245,0.0,3.0,71,0.00,,,0.00,weatherlink.com 1.10,2013-01-09 19:17:00,
2013-01-09 14:32:00,39.9,32.0,30.11,SSW,207,0.0,3.0,72,0.00,,,0.00,weatherlink.com 1.10,2013-01-09 19:32:00,
2013-01-09 14:47:00,39.8,31.0,30.09,SSE,162,0.0,3.0,72,0.00,,,0.00,weatherlink.com 1.10,2013-01-09 19:47:00,
2013-01-09 15:02:00,39.6,32.0,30.10,SE,141,0.0,4.0,73,0.00,,,0.00,weatherlink.com 1.10,2013-01-09 20:02:00,
2013-01-09 15:17:00,39.5,32.0,30.09,SW,227,1.0,4.0,74,0.00,,,0.00,weatherlink.com 1.10,2013-01-09 20:17:00,
2013-01-09 15:32:00,39.3,32.0,30.09,SW,218,0.0,2.0,75,0.00,,,0.00,weatherlink.com 1.10,2013-01-09 20:32:00,
2013-01-09 15:47:00,39.0,32.0,30.09,SW,219,0.0,3.0,76,0.00,,,0.00,weatherlink.com 1.10,2013-01-09 20:47:00,
2013-01-09 16:02:00,38.9,32.0,30.08,WNW,300,0.0,1.0,77,0.00,,,0.00,weatherlink.com 1.10,2013-01-09 21:02:00,
2013-01-09 16:17:00,39.2,32.0,30.11,SSE,160,0.0,2.0,76,0.00,,,0.00,weatherlink.com 1.10,2013-01-09 21:17:00,
2013-01-09 16:32:00,38.7,32.0,30.10,SE,136,0.0,1.0,78,0.00,,,0.00,weatherlink.com 1.10,2013-01-09 21:32:00,
2013-01-09 16:47:00,38.0,32.0,30.09,SSW,208,0.0,2.0,79,0.00,,,0.00,weatherlink.com 1.10,2013-01-09 21:47:00,
2013-01-09 17:02:00,36.9,32.0,30.08,SSE,162,0.0,1.0,82,0.00,,,0.00,weatherlink.com 1.10,2013-01-09 22:02:00,
2013-01-09 17:17:00,36.9,32.0,30.08,SW,224,0.0,1.0,83,0.00,,,0.00,weatherlink.com 1.10,2013-01-09 22:17:00,
2013-01-09 17:32:00,37.4,32.0,30.08,South,172,2.0,4.0,82,0.00,,,0.00,weatherlink.com 1.10,2013-01-09 22:32:00,
2013-01-09 17:47:00,37.9,33.0,30.08,SSW,197,0.0,4.0,82,0.00,,,0.00,weatherlink.com 1.10,2013-01-09 22:47:00,
2013-01-09 18:02:00,38.3,33.0,30.10,ESE,117,0.0,2.0,81,0.00,,,0.00,weatherlink.com 1.10,2013-01-09 23:02:00,
2013-01-09 18:17:00,38.1,33.0,30.10,SW,214,0.0,2.0,81,0.00,,,0.00,weatherlink.com 1.10,2013-01-09 23:17:00,
2013-01-09 18:32:00,39.5,34.0,30.10,SSW,212,0.0,6.0,80,0.00,,,0.00,weatherlink.com 1.10,2013-01-09 23:32:00,
2013-01-09 18:48:00,39.9,34.0,30.11,SSW,206,0.0,4.0,79,0.00,,,0.00,weatherlink.com 1.10,2013-01-09 23:48:00,
2013-01-09 19:03:00,39.3,33.0,30.11,SW,224,0.0,4.0,79,0.00,,,0.00,weatherlink.com 1.10,2013-01-10 00:03:00,
2013-01-09 19:18:00,38.9,33.0,30.11,SW,219,0.0,2.0,80,0.00,,,0.00,weatherlink.com 1.10,2013-01-10 00:18:00,
2013-01-09 19:33:00,38.6,33.0,30.10,SSW,204,0.0,2.0,81,0.00,,,0.00,weatherlink.com 1.10,2013-01-10 00:33:00,
2013-01-09 19:48:00,39.0,34.0,30.10,South,174,0.0,2.0,81,0.00,,,0.00,weatherlink.com 1.10,2013-01-10 00:48:00,
2013-01-09 20:03:00,39.1,34.0,30.10,SW,226,4.0,4.0,81,0.00,,,0.00,weatherlink.com 1.10,2013-01-10 01:03:00,
2013-01-09 20:18:00,38.7,34.0,30.11,South,188,0.0,1.0,82,0.00,,,0.00,weatherlink.com 1.10,2013-01-10 01:18:00,
2013-01-09 20:33:00,37.9,33.0,30.11,South,172,0.0,2.0,83,0.00,,,0.00,weatherlink.com 1.10,2013-01-10 01:33:00,
2013-01-09 20:48:00,38.3,34.0,30.11,WSW,238,0.0,4.0,84,0.00,,,0.00,weatherlink.com 1.10,2013-01-10 01:48:00,
2013-01-09 21:03:00,38.6,34.0,30.11,West,259,0.0,2.0,83,0.00,,,0.00,weatherlink.com 1.10,2013-01-10 02:03:00,
2013-01-09 21:18:00,38.8,34.0,30.12,SSW,211,3.0,3.0,83,0.00,,,0.00,weatherlink.com 1.10,2013-01-10 02:18:00,
2013-01-09 21:33:00,38.6,34.0,30.13,SW,226,0.0,2.0,82,0.00,,,0.00,weatherlink.com 1.10,2013-01-10 02:33:00,
2013-01-09 21:48:00,38.6,33.0,30.13,ESE,110,0.0,1.0,81,0.00,,,0.00,weatherlink.com 1.10,2013-01-10 02:48:00,
2013-01-09 22:03:00,37.3,32.0,30.13,ESE,108,0.0,1.0,82,0.00,,,0.00,weatherlink.com 1.10,2013-01-10 03:03:00,
2013-01-09 22:18:00,36.1,32.0,30.14,ESE,108,0.0,1.0,85,0.00,,,0.00,weatherlink.com 1.10,2013-01-10 03:18:00,
2013-01-09 22:33:00,34.9,31.0,30.15,SW,231,0.0,1.0,85,0.00,,,0.00,weatherlink.com 1.10,2013-01-10 03:33:00,
2013-01-09 22:48:00,33.6,30.0,30.15,SSE,152,0.0,0.0,88,0.00,,,0.00,weatherlink.com 1.10,2013-01-10 03:48:00,
2013-01-09 23:03:00,32.3,29.0,30.16,SSE,152,0.0,0.0,88,0.00,,,0.00,weatherlink.com 1.10,2013-01-10 04:03:00,
2013-01-09 23:48:00,43.1,28.0,30.17,SW,235,0.0,9.0,56,0.00,,,0.00,weatherlink.com 1.10,2013-01-10 04:48:00,